ATLAS 5 CENTAUR DEB, 44678

Orbit data source: Space-Track

ATLAS 5 CENTAUR DEB, 44678 is space debris in HEO originally from a launch on Wed, 17 Oct 2018 UTC launched from the Air Force Eastern Test Range (AFETR). Debris objects in space refer to the collection of defunct objects orbiting the Earth. Examples of debris include non-operational satellites, rocket bodies, and fragments generated from explosions, collisions, or faulty payload assembly.

Loading next visibility...
Identifier
44678, 2018-079AQ
Orbit
HEO
Country
Flag of USUS
Related business
Flag of USUnited Launch Alliance/Lockheed Martin (US)
Manufacturer
ULA Decatur
Mission
Spacecraft
Bus & Motor
Unknown
Mass
Unknown
Launch date (UTC)
2018-10-17 (7 years ago)
Launch vehicle
Unknown
Launch site
Air Force Eastern Test Range (AFETR)
Object type
Payload
Rocket body
Debris
Shape & HBR
Unknown shape, 1.1 m
Radar Cross Section
RCS unknown

Expand to show TLE details & history
Last TLE update: 6 days ago

TLE from 6 days ago
0 ATLAS 5 CENTAUR DEB
1 44678U 18079AQ  25289.83084402 -.00000104  00000-0  00000+0 0  9994
2 44678  13.1075  55.5954 4624093 273.0058  37.0437  1.82230171 46632
Epoch: 2025-10-16T19:56Z
TLE epoch observation values (Epoch: 2025-10-16T19:56:24.923Z)
Latitude
-0.00001°
Longitude
90.88811°
Altitude
15,334.431 km
Speed
4.758 km/s
True Right ascension
03h 42m 18s
True Declination
0° 00' 00"
Sunlit
Object was in daylight at epoch
Visualization orbit readout
Latitude
Unknown
Longitude
Unknown
Altitude
Unknown
Speed
Unknown
Apparent Right ascension
Unknown
Apparent Declination
Unknown
Sunlit
N/A
Visualization observer readout
Local Sidereal Time
07:32:22
Azimuth
Unknown
Elevation
Unknown
Doppler factor
Unknown
Orbital elements
Apogee altitude
35,030.326 km
Perigee altitude
8,843.87 km
Semi-major axis
28,315.235 km
Eccentricity
0.46241
Inclination
13.1075°
RAAN
55.5954°
Arg. of periapsis
273.0058°
True anomaly
87.17976°
Mean anomaly
37.0437°
Eccentric anomaly
59.98473°
Mean motion
0.45553 °/min
Orbital period
790.3 mins
BSTAR
0
Loading maneuver chart data...
Computing Atmospheric mass density...

Documentation

Showing up to 5 results
|